Weather History for Russellville, AR

Change the Weather History Date:

Sunday, September 28, 2014

  Actual Average (KHOT) Record (KHOT)
Temperature  
Mean Temperature 73 °F -  
Max Temperature 87 °F 81 °F 101 °F (1953)
Min Temperature 60 °F 56 °F 42 °F (1985)
Cooling Degree Days 8    
Growing Degree Days 23 (Base 50)    
Moisture  
Dew Point 61 °F    
Average Humidity 74    
Maximum Humidity 97    
Minimum Humidity 38    
Precipitation  
Precipitation 0.00 in - - ()
Sea Level Pressure  
Sea Level Pressure 30.05 in    
Wind  
Wind Speed 2 mph (ESE)    
Max Wind Speed 6 mph    
Max Gust Speed -    
Visibility 9 miles    
Events      
Averages and records for this station are not official NWS values.
T = Trace of Precipitation, MM = Missing Value Source: NWS Daily Summary

Daily Weather History Graph

Daily Weather History Graph

Search for Another Location

Airport:

Trip Planner

Search our weather history database for the weather conditions in past years. The results will help you decide how hot, cold, wet, or windy it might be!

Date:

Astronomy

Sep. 28, 2014 Rise Set
Actual Time 7:04 AM CDT 7:00 PM CDT
Civil Twilight 6:39 AM CDT 7:25 PM CDT
Nautical Twilight 6:10 AM CDT 7:55 PM CDT
Astronomical Twilight 5:40 AM CDT 8:24 PM CDT
Moon 11:10 AM CDT (9/28) 9:54 PM CDT (9/28)
Length of Visible Light 12h 46m
Length of Day
11h 55m
Waxing Crescent, 19% of the Moon is Illuminated
Sep 28
Waxing Crescent
Oct 1
First Quarter
Oct 8
Full
Oct 15
Last Quarter
Oct 23
New

Hourly Weather History & Observations

Time (CDT) Temp. Heat Index Dew Point Humidity Pressure Visibility Wind Dir Wind Speed Gust Speed Precip Events Conditions
12:53 AM 64.0 °F - 61.0 °F 90% 30.06 in 10.0 mi ENE 3.5 mph - N/A   Partly Cloudy
1:53 AM 63.0 °F - 61.0 °F 93% 30.06 in 10.0 mi Calm Calm - N/A   Clear
2:53 AM 63.0 °F - 61.0 °F 93% 30.06 in 9.0 mi Calm Calm - N/A   Clear
3:53 AM 62.1 °F - 60.1 °F 93% 30.05 in 8.0 mi Calm Calm - N/A   Clear
4:53 AM 61.0 °F - 60.1 °F 97% 30.06 in 5.0 mi Calm Calm - N/A   Clear
5:53 AM 61.0 °F - 59.0 °F 93% 30.06 in 9.0 mi Calm Calm - N/A   Clear
6:53 AM 60.1 °F - 59.0 °F 96% 30.09 in 6.0 mi Calm Calm - N/A   Clear
7:53 AM 62.1 °F - 60.1 °F 93% 30.09 in 5.0 mi Calm Calm - N/A   Scattered Clouds
8:53 AM 70.0 °F - 64.9 °F 84% 30.11 in 10.0 mi Variable 3.5 mph - N/A   Overcast
9:53 AM 73.9 °F - 64.0 °F 71% 30.11 in 10.0 mi Variable 3.5 mph - N/A   Clear
10:53 AM 78.1 °F - 63.0 °F 60% 30.11 in 10.0 mi SSE 5.8 mph - N/A   Clear
11:53 AM 80.1 °F 81.2 °F 62.1 °F 54% 30.10 in 10.0 mi Variable 3.5 mph - N/A   Clear
12:53 PM 82.9 °F 83.7 °F 62.1 °F 49% 30.08 in 10.0 mi Variable 5.8 mph - N/A   Clear
1:53 PM 84.0 °F 84.4 °F 61.0 °F 46% 30.04 in 10.0 mi Variable 5.8 mph - N/A   Partly Cloudy
2:53 PM 84.9 °F 84.8 °F 60.1 °F 43% 30.02 in 10.0 mi Variable 3.5 mph - N/A   Partly Cloudy
3:53 PM 86.0 °F 85.0 °F 57.9 °F 38% 30.00 in 10.0 mi Calm Calm - N/A   Partly Cloudy
4:53 PM 84.9 °F 84.2 °F 57.9 °F 40% 29.99 in 10.0 mi Variable 3.5 mph - N/A   Clear
5:53 PM 84.0 °F 83.8 °F 59.0 °F 43% 29.99 in 10.0 mi Variable 4.6 mph - N/A   Clear
6:53 PM 75.0 °F - 62.1 °F 64% 30.00 in 10.0 mi Calm Calm - N/A   Clear
7:53 PM 69.1 °F - 63.0 °F 81% 30.01 in 10.0 mi Calm Calm - N/A   Clear
8:53 PM 66.9 °F - 62.1 °F 84% 30.02 in 10.0 mi Calm Calm - N/A   Clear
9:53 PM 64.9 °F - 61.0 °F 87% 30.04 in 10.0 mi Calm Calm - N/A   Clear
10:53 PM 64.0 °F - 60.1 °F 87% 30.03 in 10.0 mi Calm Calm - N/A   Clear
11:53 PM 63.0 °F - 60.1 °F 90% 30.02 in 10.0 mi Calm Calm - N/A   Clear